When you browse on this site, cookies collect data to enhance your experience and personalize the content and advertising you see.
Visit our Privacy Policy to learn more. By continuing to use the site, you agree to this use of cookies and data.
  • In Netherlands
  • List of Countries
  • For 7 days
  • Water Temperature
  • Weather Map
  • Weather Widgets
  • user-avatar
    Login

    Hourly Weather Baraki Barak

    Today, 18 September, Wednesday

    Time Temperature Precipitation Wind Pressure Humidity
    00:00 +14°C° 0 mm 1 mps 597 mmHg 13%
    01:00 +14°C° 0 mm 1 mps 597 mmHg 14%
    02:00 +12°C° 0 mm 0 mps 597 mmHg 16%
    03:00 +12°C° 0 mm 1 mps 596 mmHg 17%
    04:00 +12°C° 0 mm 1 mps 596 mmHg 18%
    05:00 +11°C° 0 mm 1 mps 596 mmHg 19%
    06:00 +14°C° 0 mm 1 mps 598 mmHg 16%
    07:00 +16°C° 0 mm 1 mps 600 mmHg 13%
    08:00 +20°C° 0 mm 1 mps 601 mmHg 10%
    09:00 +22°C° 0 mm 1 mps 602 mmHg 9%
    10:00 +24°C° 0 mm 1 mps 603 mmHg 7%
    11:00 +26°C° 0 mm 1 mps 603 mmHg 6%
    12:00 +28°C° 0 mm 1 mps 603 mmHg 5%
    13:00 +29°C° 0 mm 1 mps 603 mmHg 4%
    14:00 +30°C° 0 mm 1 mps 603 mmHg 4%
    15:00 +30°C° 0 mm 2 mps 603 mmHg 3%
    16:00 +30°C° 0 mm 2 mps 603 mmHg 3%
    17:00 +30°C° 0 mm 2 mps 603 mmHg 3%
    18:00 +27°C° 0 mm 2 mps 602 mmHg 5%
    19:00 +23°C° 0 mm 1 mps 601 mmHg 7%
    20:00 +20°C° 0 mm 1 mps 599 mmHg 10%
    21:00 +19°C° 0 mm 1 mps 599 mmHg 11%
    22:00 +18°C° 0 mm 1 mps 599 mmHg 12%
    23:00 +16°C° 0 mm 1 mps 599 mmHg 13%

    Tomorrow, 19 September, Thursday

    Time Temperature Precipitation Wind Pressure Humidity
    00:00 +16°C° 0 mm 1 mps 599 mmHg 14%
    01:00 +14°C° 0 mm 0 mps 598 mmHg 15%
    02:00 +13°C° 0 mm 0 mps 598 mmHg 16%
    03:00 +14°C° 0 mm 1 mps 598 mmHg 16%
    04:00 +13°C° 0 mm 1 mps 598 mmHg 16%
    05:00 +13°C° 0 mm 1 mps 598 mmHg 17%
    06:00 +15°C° 0 mm 1 mps 599 mmHg 15%
    07:00 +18°C° 0 mm 1 mps 601 mmHg 13%
    08:00 +20°C° 0 mm 1 mps 602 mmHg 11%
    09:00 +22°C° 0 mm 1 mps 603 mmHg 9%
    10:00 +24°C° 0 mm 1 mps 603 mmHg 8%
    11:00 +26°C° 0 mm 1 mps 604 mmHg 6%
    12:00 +27°C° 0 mm 1 mps 603 mmHg 5%
    13:00 +28°C° 0 mm 1 mps 603 mmHg 5%
    14:00 +30°C° 0 mm 1 mps 603 mmHg 4%
    15:00 +30°C° 0 mm 2 mps 603 mmHg 4%
    16:00 +30°C° 0 mm 2 mps 603 mmHg 4%
    17:00 +30°C° 0 mm 2 mps 603 mmHg 4%
    18:00 +26°C° 0 mm 2 mps 602 mmHg 7%
    19:00 +23°C° 0 mm 2 mps 601 mmHg 10%
    20:00 +19°C° 0 mm 2 mps 600 mmHg 14%
    21:00 +18°C° 0 mm 2 mps 600 mmHg 17%
    22:00 +18°C° 0 mm 1 mps 600 mmHg 21%
    23:00 +16°C° 0 mm 1 mps 600 mmHg 24%

    Day after tomorrow, 20 September, Friday

    Time Temperature Precipitation Wind Pressure Humidity
    00:00 +16°C° 0 mm 1 mps 599 mmHg 25%
    01:00 +15°C° 0 mm 1 mps 599 mmHg 26%
    02:00 +14°C° 0 mm 1 mps 599 mmHg 26%
    03:00 +14°C° 0 mm 1 mps 598 mmHg 27%
    04:00 +13°C° 0 mm 1 mps 598 mmHg 28%
    05:00 +13°C° 0 mm 1 mps 598 mmHg 29%
    06:00 +14°C° 0 mm 1 mps 599 mmHg 26%
    07:00 +16°C° 0 mm 1 mps 600 mmHg 23%
    08:00 +19°C° 0 mm 1 mps 601 mmHg 20%
    09:00 +21°C° 0 mm 1 mps 601 mmHg 18%
    10:00 +23°C° 0 mm 1 mps 602 mmHg 15%
    11:00 +25°C° 0 mm 1 mps 602 mmHg 13%
    12:00 +26°C° 0 mm 1 mps 602 mmHg 11%
    13:00 +27°C° 0 mm 1 mps 602 mmHg 10%
    14:00 +28°C° 0 mm 1 mps 602 mmHg 8%
    15:00 +28°C° 0 mm 1 mps 602 mmHg 8%
    16:00 +28°C° 0 mm 2 mps 602 mmHg 7%
    17:00 +28°C° 0 mm 2 mps 601 mmHg 7%
    18:00 +26°C° 0 mm 2 mps 601 mmHg 9%
    19:00 +23°C° 0 mm 2 mps 600 mmHg 12%
    20:00 +20°C° 0 mm 1 mps 599 mmHg 14%
    21:00 +19°C° 0 mm 1 mps 599 mmHg 17%
    22:00 +18°C° 0 mm 1 mps 599 mmHg 19%
    23:00 +16°C° 0 mm 1 mps 599 mmHg 22%

    21 September, Saturday

    Time Temperature Precipitation Wind Pressure Humidity
    00:00 +15°C° 0 mm 1 mps 598 mmHg 23%
    01:00 +15°C° 0 mm 1 mps 598 mmHg 24%
    02:00 +14°C° 0 mm 1 mps 597 mmHg 26%
    03:00 +13°C° 0 mm 1 mps 597 mmHg 27%
    04:00 +13°C° 0 mm 1 mps 597 mmHg 29%
    05:00 +12°C° 0 mm 1 mps 597 mmHg 30%
    06:00 +14°C° 0 mm 1 mps 598 mmHg 27%
    07:00 +16°C° 0 mm 1 mps 599 mmHg 23%
    08:00 +19°C° 0 mm 1 mps 600 mmHg 20%
    09:00 +21°C° 0 mm 1 mps 601 mmHg 17%
    10:00 +23°C° 0 mm 1 mps 601 mmHg 15%
    11:00 +25°C° 0 mm 1 mps 602 mmHg 12%
    12:00 +27°C° 0 mm 1 mps 602 mmHg 10%
    13:00 +28°C° 0 mm 1 mps 602 mmHg 9%
    14:00 +29°C° 0 mm 1 mps 602 mmHg 7%
    15:00 +29°C° 0 mm 1 mps 601 mmHg 6%
    16:00 +29°C° 0 mm 1 mps 601 mmHg 6%
    17:00 +30°C° 0 mm 2 mps 601 mmHg 6%
    18:00 +26°C° 0 mm 1 mps 600 mmHg 8%
    19:00 +23°C° 0 mm 1 mps 599 mmHg 11%
    20:00 +20°C° 0 mm 1 mps 598 mmHg 13%
    21:00 +19°C° 0 mm 1 mps 598 mmHg 17%
    22:00 +18°C° 0 mm 1 mps 598 mmHg 21%
    23:00 +18°C° 0 mm 1 mps 598 mmHg 24%

    22 September, Sunday

    Time Temperature Precipitation Wind Pressure Humidity
    00:00 +16°C° 0 mm 1 mps 598 mmHg 28%
    01:00 +14°C° 0 mm 0 mps 597 mmHg 32%
    02:00 +14°C° 0 mm 0 mps 597 mmHg 36%
    03:00 +13°C° 0 mm 0 mps 597 mmHg 40%
    04:00 +13°C° 0 mm 0 mps 597 mmHg 44%
    05:00 +12°C° 0 mm 0 mps 597 mmHg 49%
    06:00 +15°C° 0 mm 0 mps 598 mmHg 42%
    07:00 +17°C° 0 mm 0 mps 600 mmHg 35%
    08:00 +20°C° 0 mm 0 mps 602 mmHg 28%
    09:00 +21°C° 0 mm 0 mps 602 mmHg 24%
    10:00 +25°C° 0 mm 1 mps 603 mmHg 20%
    11:00 +27°C° 0 mm 1 mps 603 mmHg 16%
    12:00 +28°C° 0 mm 1 mps 603 mmHg 14%
    13:00 +29°C° 0 mm 1 mps 603 mmHg 12%
    14:00 +30°C° 0 mm 1 mps 603 mmHg 10%
    15:00 +31°C° 0 mm 2 mps 603 mmHg 10%
    16:00 +31°C° 0 mm 2 mps 603 mmHg 9%
    17:00 +31°C° 0 mm 2 mps 602 mmHg 9%
    18:00 +27°C° 0 mm 2 mps 601 mmHg 13%
    19:00 +24°C° 0 mm 1 mps 601 mmHg 18%
    20:00 +21°C° 0 mm 1 mps 600 mmHg 22%
    21:00 +20°C° 0 mm 1 mps 600 mmHg 24%
    22:00 +17°C° 0 mm 0 mps 599 mmHg 26%
    23:00 +17°C° 0 mm 0 mps 599 mmHg 28%

    23 September, Monday

    Time Temperature Precipitation Wind Pressure Humidity
    00:00 +16°C° 0 mm 0 mps 599 mmHg 30%
    01:00 +16°C° 0 mm 0 mps 599 mmHg 32%
    02:00 +15°C° 0 mm 0 mps 599 mmHg 34%
    03:00 +15°C° 0 mm 0 mps 598 mmHg 34%
    04:00 +15°C° 0 mm 1 mps 598 mmHg 35%
    05:00 +15°C° 0 mm 1 mps 598 mmHg 36%
    06:00 +18°C° 0 mm 1 mps 599 mmHg 30%
    07:00 +19°C° 0 mm 1 mps 601 mmHg 24%
    08:00 +20°C° 0 mm 2 mps 602 mmHg 18%
    09:00 +23°C° 0 mm 2 mps 602 mmHg 15%
    10:00 +25°C° 0 mm 2 mps 603 mmHg 12%
    11:00 +27°C° 0 mm 2 mps 603 mmHg 9%
    12:00 +28°C° 0 mm 2 mps 603 mmHg 8%
    13:00 +29°C° 0 mm 2 mps 603 mmHg 6%
    14:00 +30°C° 0 mm 2 mps 603 mmHg 5%
    15:00 +30°C° 0 mm 2 mps 602 mmHg 5%
    16:00 +30°C° 0 mm 2 mps 602 mmHg 5%
    17:00 +30°C° 0 mm 2 mps 602 mmHg 5%
    18:00 +27°C° 0 mm 2 mps 601 mmHg 8%
    19:00 +23°C° 0 mm 2 mps 600 mmHg 12%
    20:00 +20°C° 0 mm 1 mps 599 mmHg 15%
    21:00 +19°C° 0 mm 1 mps 599 mmHg 19%
    22:00 +18°C° 0 mm 1 mps 599 mmHg 23%
    23:00 +15°C° 0 mm 0 mps 598 mmHg 27%
    Show more